Regional Weather Roundup
Issued by NWS

Home | Current Version | Previous Version | Graphics & Text | Print | Product List | Glossary On
Versions: 1 2 3 4 5 6 7 8 9 10 11 12 13 14 15 16 17 18 19 20 21 22 23 24 25 26 27 28 29 30 31 32 33 34 35 36 37 38 39 40 41 42 43 44 45 46 47 48 49 50
000
ASUS45 KCYS 300410
RWRWY

WYOMING REGIONAL WEATHER ROUNDUP
NATIONAL WEATHER SERVICE CHEYENNE WY
1000 PM MDT THU SEP 29 2016

NOTE:  "FAIR" INDICATES FEW OR NO CLOUDS BELOW 12,000 FEET
WITH NO SIGNIFICANT WEATHER AND/OR OBSTRUCTIONS TO VISIBILITY.

WYZ001-300500-
YELLOWSTONE NATIONAL PARK

CITY           SKY/WX    TMP DP  RH WIND       PRES   REMARKS
LK YELLOWSTONE   N/A     43  41  93 CALM      30.39R
W YELLOWSTONE  NOT AVBL

$$
WYZ002>013-054>058-071-098>099-300500-
NORTHERN WYOMING

CITY           SKY/WX    TMP DP  RH WIND       PRES   REMARKS
JACKSON        FAIR      45  43  93 CALM      30.33S
CODY           FAIR      61  44  53 W9        30.19F
GREYBULL       FAIR      64  52  64 N10       30.14F
WORLAND        LGT RAIN  66  47  50 CALM      30.16S
SHERIDAN       FAIR      58  50  75 CALM      30.08S
BUFFALO        FAIR      70  42  36 SW12      30.17S
GILLETTE       FAIR      65  48  54 S13       30.15S
HULETT         FAIR      72  43  35 S16G23    30.17S
NEWCASTLE      FAIR      68  39  34 SE16G23   30.21S

$$
WYZ014>020-022>026-101>103-300500-
CENTRAL WYOMING

CITY           SKY/WX    TMP DP  RH WIND       PRES   REMARKS
BIG PINEY      FAIR      46  41  82 N3        30.35S
PINEDALE       FAIR      46  45  93 NW3       30.36R
DUBOIS         FAIR      46  41  81 CALM      30.34F
LANDER         FAIR      59  46  62 CALM      30.24S
RIVERTON       FAIR      57  49  74 NW12      30.23F
CASPER         FAIR      60  46  59 S13       30.25S
DOUGLAS        FAIR      58  45  62 SE6       30.25S

$$
WYZ021-027>030-104>119-300500-
SOUTHERN WYOMING

CITY           SKY/WX    TMP DP  RH WIND       PRES   REMARKS
EVANSTON       FAIR      54  41  61 S6        30.35R
FORT BRIDGER   MOCLDY    57  43  58 S3        30.38S
ROCK SPRINGS   FAIR      55  45  68 S8        30.34R
DIXON          FAIR      55  47  76 CALM      30.40S
RAWLINS        FAIR      54  45  71 S5        30.36F
SARATOGA       FAIR      52  46  82 SW3       30.39F
LARAMIE        CLOUDY    53  44  71 NE8       30.37F
CHEYENNE       FAIR      61  39  44 CALM      30.31S
TORRINGTON     FAIR      60  43  53 E7        30.22R
PINE BLUFFS    FAIR      61  39  44 SE23G29   30.25S

$$



USA.gov is the U.S. government's official web portal to all federal, state and local government web resources and services.